Location: Radomski Observatory
(40.2854°N, 79.5145°W)
Time: 01:23:48
(UTC-05:00)

Amateur Radio Satellites - All Passes

Search period start: 26 November 2014 00:53
Search period end: 27 November 2014 00:53
Location: Radomski Observatory, 40.2854°N, 79.5145°W

Satellite Date Start Highest point End Downlink Frequencies (MHz)
Time Altitude Azimuth
MaSat-1 26 Nov 01:01:52 01:04:09 53° 247° (WSW) 01:06:30 437.345
ITUPSAT 1 26 Nov 01:04:07 01:08:56 83° 257° (WSW) 01:13:47 437.325
YUBILEINY 26 Nov 01:07:51 01:13:23 19° 78° (ENE) 01:18:53 435.215
ISS 26 Nov 01:09:17 01:11:54 22° 338° (NNW) 01:14:32 145.825
SWISSCUBE 26 Nov 01:15:16 01:19:59 58° 259° (W) 01:24:45 437.505
STARS 26 Nov 01:35:13 01:39:01 29° 69° (ENE) 01:42:50 437.465
Oscar 19 26 Nov 01:37:42 01:42:46 55° 100° (E) 01:47:50 437.125/150
BEESAT 26 Nov 01:47:04 01:51:15 30° 264° (W) 01:55:28 436.000
RS-15 26 Nov 01:51:58 02:03:11 76° 243° (WSW) 02:14:55 29.354- 29.394
KKS-1 26 Nov 02:14:53 02:19:19 69° 258° (WSW) 02:23:46 437.445
ITAMSAT 1 26 Nov 02:30:29 02:35:39 66° 102° (ESE) 02:40:46 435.822/435.867
SO-50 26 Nov 02:39:21 02:41:45 14° 108° (ESE) 02:44:11 436.795
ISS 26 Nov 02:48:16 02:49:31 12° 358° (N) 02:50:45 145.825
YUBILEINY 26 Nov 03:00:08 03:08:58 85° 277° (W) 03:17:48 435.215
Gurwin Techsat 1B 26 Nov 03:02:04 03:07:24 76° 103° (ESE) 03:12:42 435.225
STARS 26 Nov 03:11:53 03:15:29 24° 265° (W) 03:19:06 437.465
Oscar 19 26 Nov 03:18:09 03:21:40 19° 297° (WNW) 03:25:11 437.125/150
MOZHAYETS 4 26 Nov 03:20:41 03:23:32 17° 64° (ENE) 03:26:24
HORYU 2 26 Nov 03:23:46 03:28:12 55° 101° (E) 03:32:36 437.375
AIST 2 26 Nov 04:04:15 04:05:12 11° 38° (NE) 04:06:10 435.215
RS-15 26 Nov 04:07:27 04:13:40 17° 262° (W) 04:20:03 29.354- 29.394
PCSat 26 Nov 04:10:49 04:15:41 32° 52° (NE) 04:20:30 145.827
ITAMSAT 1 26 Nov 04:11:31 04:14:34 16° 299° (WNW) 04:17:37 435.822/435.867
SO-50 26 Nov 04:17:16 04:21:44 60° 305° (NW) 04:26:21 436.795
AO-7 26 Nov 04:20:50 04:29:03 57° 103° (ESE) 04:37:14 29.400- 29.500
ISS 26 Nov 04:24:53 04:27:12 17° 18° (NNE) 04:29:30 145.825
PRISM 26 Nov 04:33:11 04:35:57 17° 65° (ENE) 04:38:43 437.425
JAS-2 26 Nov 04:39:55 04:45:48 28° 91° (E) 04:51:05 435.910
Gurwin Techsat 1B 26 Nov 04:43:54 04:46:42 15° 300° (WNW) 04:49:29 435.225
BEESAT 3 26 Nov 04:50:21 04:54:26 48° 54° (NE) 04:58:27 437.485
MOZHAYETS 4 26 Nov 04:55:52 05:00:20 51° 261° (W) 05:04:50
YUBILEINY 26 Nov 05:01:41 05:07:08 18° 298° (WNW) 05:12:36 435.215
HORYU 2 26 Nov 05:01:55 05:04:24 15° 297° (WNW) 05:06:54 437.375
CUBESAT XI-V 26 Nov 05:02:25 05:04:58 15° 63° (ENE) 05:07:32 437.345
BEESAT 2 26 Nov 05:05:45 05:09:57 63° 56° (NE) 05:14:04 435.950
Cubesat XI-IV 26 Nov 05:12:58 05:13:56 10° 88° (E) 05:14:54 437.490
O/OREOS (USA 219) 26 Nov 05:30:18 05:34:19 33° 105° (ESE) 05:38:20 437.305
STRAND 1 26 Nov 05:31:46 05:36:13 31° 67° (ENE) 05:40:41 437.568
AIST 2 26 Nov 05:40:20 05:44:39 71° 57° (ENE) 05:48:53 435.215
CUTE-I 26 Nov 05:51:24 05:55:50 26° 95° (E) 06:00:14 437.470
PCSat 26 Nov 05:54:10 05:59:06 37° 250° (WSW) 06:04:01 145.827
ISS 26 Nov 06:00:58 06:04:16 80° 37° (NE) 06:07:34 145.825
SO-50 26 Nov 06:02:17 06:03:18 11° 326° (NW) 06:04:18 436.795
PRISM 26 Nov 06:07:13 06:11:10 40° 261° (W) 06:15:11 437.425
AO-7 26 Nov 06:14:12 06:21:25 34° 301° (WNW) 06:28:37 29.400- 29.500
JAS-2 26 Nov 06:24:21 06:31:09 49° 292° (WNW) 06:37:09 435.910
AIST 1 26 Nov 06:26:07 06:30:08 34° 77° (ENE) 06:34:05
BEESAT 3 26 Nov 06:29:45 06:32:16 16° 251° (WSW) 06:34:45 437.485
CUBESAT XI-V 26 Nov 06:37:13 06:41:53 61° 259° (W) 06:46:35 437.345
BEESAT 2 26 Nov 06:46:07 06:47:41 12° 252° (WSW) 06:49:14 435.950
Cubesat XI-IV 26 Nov 06:49:21 06:54:42 88° 285° (WNW) 07:00:00 437.490
GONETS M04 26 Nov 06:57:20 07:03:24 21° 79° (E) 07:09:28
O/OREOS (USA 219) 26 Nov 07:10:09 07:13:45 23° 301° (WNW) 07:17:22 437.305
STRAND 1 26 Nov 07:10:46 07:15:19 32° 263° (W) 07:19:54 437.568
AIST 2 26 Nov 07:21:40 07:22:39 11° 253° (WSW) 07:23:37 435.215
CUTE-I 26 Nov 07:31:06 07:35:58 38° 291° (WNW) 07:40:49 437.470
ISS 26 Nov 07:39:40 07:40:27 11° 232° (SW) 07:41:14 145.825
AIST 1 26 Nov 08:04:28 08:07:31 19° 273° (W) 08:10:32
CANX-2 26 Nov 08:12:01 08:14:30 15° 92° (E) 08:16:59 2200.000
COMPASS 1 26 Nov 08:17:02 08:18:01 11° 90° (E) 08:18:59 437.405
HO-68 26 Nov 08:27:53 08:34:09 32° 96° (E) 08:40:21 435.675
Cubesat XI-IV 26 Nov 08:32:05 08:33:58 12° 302° (WNW) 08:35:50 437.490
GOMX 1 26 Nov 08:41:23 08:44:25 19° 94° (E) 08:47:30 467.674
CUTE 1.7 & AOD 2 26 Nov 08:45:32 08:49:24 32° 97° (E) 08:53:16 437.475
GONETS M04 26 Nov 08:50:20 08:59:08 78° 278° (W) 09:08:02
BRITE-PL 26 Nov 09:10:17 09:14:23 58° 101° (E) 09:18:32 437.365/2234.400
ANTELSAT 26 Nov 09:12:35 09:15:38 19° 66° (ENE) 09:18:41 437.575/2403.000
UKube-1 26 Nov 09:12:50 09:15:47 18° 94° (E) 09:18:43 .
SEEDS 26 Nov 09:18:01 09:22:17 67° 101° (ESE) 09:26:32 437.485
Oscar 11 26 Nov 09:23:17 09:27:02 28° 96° (E) 09:30:46 145.826/435.025
POLYITAN 1 26 Nov 09:27:26 09:30:31 20° 67° (ENE) 09:33:36 437.675
QB50P2 26 Nov 09:29:15 09:32:25 21° 67° (ENE) 09:35:35 145.880/145.840
AAUSAT CUBESAT 2 26 Nov 09:34:24 09:38:39 77° 102° (ESE) 09:42:53 437.432
DUCHIFAT 1 26 Nov 09:34:54 09:38:16 23° 68° (ENE) 09:41:38 145.980
DOVE 4 26 Nov 09:35:19 09:39:27 59° 101° (E) 09:43:42 437.250
DELFI C3 26 Nov 09:38:42 09:42:30 34° 97° (E) 09:46:17 145.870
UWE-3 26 Nov 09:42:19 09:45:42 23° 95° (E) 09:49:09 435.000/436.395/437.385
CUBEBUG 2 26 Nov 09:42:24 09:46:01 26° 96° (E) 09:49:42 437.445
CANX-2 26 Nov 09:46:34 09:50:40 45° 287° (WNW) 09:54:46 2200.000
DX 1 26 Nov 09:47:42 09:51:52 44° 100° (E) 09:56:00 434.975-435.025
COMPASS 1 26 Nov 09:49:56 09:54:08 62° 285° (WNW) 09:58:20 437.405
NANOSAT C BR1 26 Nov 09:53:42 09:57:37 37° 71° (ENE) 10:01:33 145.865
HUMSAT D 26 Nov 09:58:37 10:01:25 17° 93° (E) 10:04:14 437.325/437.525
QB50P1 26 Nov 10:03:26 10:07:32 48° 73° (ENE) 10:11:38 145.935-145.965
TIGRISAT 26 Nov 10:05:14 10:09:28 73° 75° (ENE) 10:13:43 435.000
CINEMA 3 26 Nov 10:09:19 10:13:33 87° 101° (ESE) 10:17:55 145.822/145.860
BUGSAT 1 26 Nov 10:12:35 10:16:43 50° 73° (ENE) 10:20:49 437.445
HO-68 26 Nov 10:15:11 10:22:01 49° 293° (WNW) 10:28:48 435.675
ZACube-1 26 Nov 10:16:18 10:20:24 47° 99° (E) 10:24:34 437.345
VELOX 1 26 Nov 10:18:51 10:22:46 30° 97° (E) 10:26:38 145.980
GOMX 1 26 Nov 10:18:56 10:22:38 32° 289° (WNW) 10:26:25 467.674
UNISAT 6 26 Nov 10:19:02 10:23:18 77° 257° (WSW) 10:27:35 437.425
ESTCUBE 1 26 Nov 10:20:18 10:21:57 12° 90° (E) 10:23:37 437.505/2401.250
CUTE 1.7 & AOD 2 26 Nov 10:21:53 10:25:08 21° 292° (WNW) 10:28:24 437.475
POPSAT HIP 1 26 Nov 10:28:05 10:32:22 88° 257° (WSW) 10:36:38 437.405
AISAT 26 Nov 10:44:57 10:49:21 61° 101° (E) 10:53:42 437.250
UKube-1 26 Nov 10:48:04 10:52:06 39° 289° (WNW) 10:56:07 .
ANTELSAT 26 Nov 10:48:17 10:52:12 35° 262° (W) 10:56:08 437.575/2403.000
BRITE-PL 26 Nov 10:51:06 10:52:26 11° 297° (WNW) 10:53:46 437.365/2234.400
FUNcube-1 26 Nov 10:51:13 10:55:26 69° 285° (WNW) 10:59:43 145.935
GONETS M04 26 Nov 10:52:39 10:57:33 16° 300° (WNW) 11:02:29
SEEDS 26 Nov 10:56:13 10:57:33 11° 297° (WNW) 10:58:53 437.485
CUBEBUG 1 26 Nov 10:57:10 11:00:56 28° 96° (E) 11:04:41 437.445
Oscar 11 26 Nov 10:59:32 11:03:06 25° 292° (WNW) 11:06:40 145.826/435.025
POLYITAN 1 26 Nov 11:02:20 11:06:14 35° 262° (W) 11:10:09 437.675
QB50P2 26 Nov 11:04:16 11:08:08 33° 263° (W) 11:12:00 145.880/145.840
SO-50 26 Nov 11:09:45 11:12:54 17° 41° (NE) 11:16:03 436.795
DUCHIFAT 1 26 Nov 11:10:17 11:14:00 29° 263° (W) 11:17:43 145.980
DELFI C3 26 Nov 11:14:38 11:17:34 19° 293° (WNW) 11:20:30 145.870
DOVE 4 26 Nov 11:15:16 11:16:46 12° 296° (WNW) 11:18:17 437.250
UWE-3 26 Nov 11:18:34 11:22:15 29° 290° (WNW) 11:25:59 435.000/436.395/437.385
CUBEBUG 2 26 Nov 11:19:09 11:22:39 25° 291° (WNW) 11:26:12 437.445
50 SAT 26 Nov 11:19:58 11:23:59 63° 285° (WNW) 11:28:01 437.505
DX 1 26 Nov 11:24:59 11:27:45 17° 296° (WNW) 11:30:30 434.975-435.025
NANOSAT C BR1 26 Nov 11:30:43 11:33:38 18° 267° (W) 11:36:33 145.865
HUMSAT D 26 Nov 11:33:31 11:37:21 37° 288° (WNW) 11:41:14 437.325/437.525
QB50P1 26 Nov 11:41:28 11:43:41 14° 268° (W) 11:45:55 145.935-145.965
BUGSAT 1 26 Nov 11:50:25 11:52:29 13° 268° (W) 11:54:32 437.445
ZACube-1 26 Nov 11:53:57 11:56:25 15° 295° (WNW) 11:58:54 437.345
ESTCUBE 1 26 Nov 11:54:45 11:59:15 63° 286° (WNW) 12:03:42 437.505/2401.250
VELOX 1 26 Nov 11:55:39 11:59:13 24° 293° (WNW) 12:02:45 145.980
TISAT 1 26 Nov 12:08:37 12:12:39 43° 99° (E) 12:16:39 437.305
ITAMSAT 1 26 Nov 12:12:21 12:14:25 12° 59° (ENE) 12:16:30 435.822/435.867
SPROUT 26 Nov 12:19:27 12:23:39 52° 100° (E) 12:27:48 437.525
AISAT 26 Nov 12:23:24 12:25:28 13° 297° (WNW) 12:27:31 437.250
DANDE 26 Nov 12:26:36 12:27:55 13° 93° (E) 12:29:12 436.750
CUBEBUG 1 26 Nov 12:33:39 12:37:12 25° 292° (WNW) 12:40:44 437.445
Gurwin Techsat 1B 26 Nov 12:45:48 12:48:41 15° 61° (ENE) 12:51:34 435.225
SO-50 26 Nov 12:49:09 12:54:02 80° 239° (WSW) 12:58:56 436.795
Oscar 19 26 Nov 12:54:03 12:59:08 75° 74° (ENE) 13:04:16 437.125/150
ITUPSAT 1 26 Nov 13:06:02 13:10:05 27° 95° (E) 13:14:05 437.325
YUBILEINY 26 Nov 13:11:17 13:19:37 47° 75° (ENE) 13:27:51 435.215
SWISSCUBE 26 Nov 13:16:31 13:20:59 37° 98° (E) 13:25:24 437.505
AO-7 26 Nov 13:31:09 13:35:50 17° 48° (NE) 13:40:32 29.400- 29.500
AUBIESAT-1 26 Nov 13:40:57 13:45:52 68° 106° (ESE) 13:50:37 437.475
CUSAT 1 26 Nov 13:41:06 13:43:18 22° 284° (WNW) 13:45:27 437.405
TISAT 1 26 Nov 13:45:34 13:48:08 16° 295° (WNW) 13:50:41 437.305
M-CUBED/EXP-1 PRIME 26 Nov 13:46:27 13:51:26 84° 108° (ESE) 13:56:16 437.505
BEESAT 26 Nov 13:47:16 13:52:05 73° 102° (ESE) 13:56:50 436.000
ITAMSAT 1 26 Nov 13:47:55 13:53:09 87° 256° (WSW) 13:58:24 435.822/435.867
SPROUT 26 Nov 13:57:02 13:59:17 14° 296° (WNW) 14:01:32 437.525
PHONESAT 2.4 26 Nov 14:04:17 14:07:05 20° 149° (SSE) 14:09:53 2401.200-2431.200
KKS-1 26 Nov 14:07:23 14:10:57 24° 95° (E) 14:14:31 437.445
RS-15 26 Nov 14:08:50 14:14:38 16° 98° (E) 14:20:22 29.354- 29.394
DANDE 26 Nov 14:10:13 14:11:18 12° 286° (WNW) 14:12:21 436.750
VERMONT LUNAR 26 Nov 14:13:04 14:16:15 30° 154° (SSE) 14:19:28 437.305
HORYU 2 26 Nov 14:21:58 14:26:12 48° 72° (ENE) 14:30:28 437.375
Gurwin Techsat 1B 26 Nov 14:22:42 14:28:00 74° 257° (WSW) 14:33:20 435.225
MaSat-1 26 Nov 14:29:55 14:32:15 21° 110° (ESE) 14:34:26 437.345
Oscar 19 26 Nov 14:37:05 14:39:01 12° 271° (W) 14:40:58 437.125/150
ITUPSAT 1 26 Nov 14:43:43 14:47:57 32° 292° (WNW) 14:52:10 437.325
JAS-2 26 Nov 14:52:18 14:56:41 16° 54° (NE) 15:01:05 435.910
SWISSCUBE 26 Nov 14:54:52 14:58:37 23° 294° (WNW) 15:02:20 437.505
STARS 26 Nov 15:01:34 15:05:57 63° 101° (ESE) 15:10:17 437.465
YUBILEINY 26 Nov 15:08:27 15:16:09 37° 274° (W) 15:23:50 435.215
AUBIESAT-1 26 Nov 15:17:20 15:20:16 16° 303° (WNW) 15:23:10 437.475
AO-7 26 Nov 15:18:58 15:27:11 72° 69° (ENE) 15:35:28 29.400- 29.500
M-CUBED/EXP-1 PRIME 26 Nov 15:23:26 15:25:45 13° 304° (NW) 15:28:04 437.505
BEESAT 26 Nov 15:27:10 15:29:17 13° 299° (WNW) 15:31:24 436.000
O/OREOS (USA 219) 26 Nov 15:40:14 15:44:40 59° 66° (ENE) 15:49:05 437.305
PHONESAT 2.4 26 Nov 15:41:49 15:45:30 66° 165° (SSE) 15:49:12 2401.200-2431.200
KKS-1 26 Nov 15:43:42 15:47:36 31° 291° (WNW) 15:51:29 437.445
VERMONT LUNAR 26 Nov 15:50:53 15:54:31 82° 170° (S) 15:58:09 437.305
HORYU 2 26 Nov 16:00:34 16:03:08 15° 268° (W) 16:05:43 437.375
MaSat-1 26 Nov 16:05:05 16:06:43 14° 302° (WNW) 16:08:17 437.345
RS-15 26 Nov 16:14:04 16:25:00 77° 118° (ESE) 16:35:55 29.354- 29.394
JAS-2 26 Nov 16:32:46 16:40:22 74° 73° (ENE) 16:48:13 435.910
Cubesat XI-IV 26 Nov 16:33:01 16:36:43 19° 63° (ENE) 16:40:26 437.490
STARS 26 Nov 16:40:01 16:41:54 13° 298° (WNW) 16:43:47 437.465
MOZHAYETS 4 26 Nov 16:51:43 16:56:06 39° 98° (E) 17:00:26
CUTE-I 26 Nov 17:12:38 17:17:39 42° 70° (ENE) 17:22:40 437.470
AO-7 26 Nov 17:14:18 17:20:37 24° 267° (W) 17:26:59 29.400- 29.500
PHONESAT 2.4 26 Nov 17:20:35 17:24:18 85° 1° (N) 17:28:02 2401.200-2431.200
O/OREOS (USA 219) 26 Nov 17:21:44 17:23:30 12° 262° (W) 17:25:16 437.305
VERMONT LUNAR 26 Nov 17:29:24 17:33:02 89° 181° (S) 17:36:40 437.305
PRISM 26 Nov 17:51:11 17:54:53 28° 97° (E) 17:58:32 437.425
Cubesat XI-IV 26 Nov 18:11:05 18:16:21 57° 259° (W) 18:21:38 437.490
JAS-2 26 Nov 18:20:12 18:25:58 23° 271° (W) 18:31:55 435.910
RS-15 26 Nov 18:28:45 18:38:27 35° 323° (NW) 18:48:16 29.354- 29.394
MOZHAYETS 4 26 Nov 18:29:34 18:33:03 21° 294° (WNW) 18:36:30
CUBESAT XI-V 26 Nov 18:34:59 18:39:14 34° 97° (E) 18:43:26 437.345
PCSat 26 Nov 18:52:22 18:57:02 30° 109° (ESE) 19:01:43 145.827
CUTE-I 26 Nov 18:53:34 18:57:51 24° 266° (W) 19:02:09 437.470
AIST 1 26 Nov 18:55:53 18:59:14 22° 88° (E) 19:02:36
HO-68 26 Nov 18:56:54 19:02:22 24° 58° (ENE) 19:07:50 435.675
PHONESAT 2.4 26 Nov 18:59:25 19:03:03 53° 199° (SSW) 19:06:41 2401.200-2431.200
GONETS M04 26 Nov 19:01:28 19:10:04 52° 76° (ENE) 19:18:32
BEESAT 2 26 Nov 19:02:56 19:05:02 14° 109° (ESE) 19:07:10 435.950
CANX-2 26 Nov 19:06:44 19:07:50 11° 63° (ENE) 19:08:55 2200.000
VERMONT LUNAR 26 Nov 19:07:59 19:11:22 37° 204° (SSW) 19:14:43 437.305
STRAND 1 26 Nov 19:21:08 19:26:16 89° 282° (WNW) 19:31:22 437.568
PRISM 26 Nov 19:26:55 19:30:18 24° 293° (WNW) 19:33:39 437.425
CUTE 1.7 & AOD 2 26 Nov 19:38:48 19:42:06 23° 68° (ENE) 19:45:25 437.475
AIST 2 26 Nov 19:39:46 19:42:33 17° 110° (ESE) 19:45:23 435.215
GOMX 1 26 Nov 19:49:17 19:52:58 23° 69° (ENE) 19:56:30 467.674
UKube-1 26 Nov 20:08:20 20:10:57 16° 64° (ENE) 20:13:34 .
SEEDS 26 Nov 20:10:06 20:14:04 43° 73° (ENE) 20:18:04 437.485
CUBESAT XI-V 26 Nov 20:12:48 20:16:29 24° 293° (WNW) 20:20:08 437.345
Oscar 11 26 Nov 20:18:18 20:21:32 21° 67° (ENE) 20:24:48 145.826/435.025
BRITE-PL 26 Nov 20:20:16 20:25:15 68° 75° (ENE) 20:29:52 437.365/2234.400
BEESAT 3 26 Nov 20:22:40 20:26:45 71° 303° (WNW) 20:30:55 437.485
AAUSAT CUBESAT 2 26 Nov 20:25:22 20:29:22 48° 73° (ENE) 20:33:23 437.432
DELFI C3 26 Nov 20:27:47 20:30:53 21° 68° (ENE) 20:34:00 145.870
AIST 1 26 Nov 20:32:49 20:36:42 30° 284° (WNW) 20:40:37
PCSat 26 Nov 20:35:18 20:40:18 38° 306° (NW) 20:45:21 145.827
BEESAT 2 26 Nov 20:38:49 20:42:51 53° 305° (NW) 20:46:58 435.950
CANX-2 26 Nov 20:39:00 20:43:11 68° 259° (W) 20:47:25 2200.000
PHONESAT 2.4 26 Nov 20:39:13 20:41:22 15° 214° (SSW) 20:43:30 2401.200-2431.200
UWE-3 26 Nov 20:40:13 20:43:07 18° 67° (ENE) 20:45:59 435.000/436.395/437.385
DOVE 4 26 Nov 20:40:38 20:45:10 59° 75° (ENE) 20:49:28 437.250
COMPASS 1 26 Nov 20:41:01 20:45:11 84° 77° (ENE) 20:49:24 437.405
CUBEBUG 2 26 Nov 20:41:13 20:44:27 22° 68° (ENE) 20:47:40 437.445
HO-68 26 Nov 20:42:17 20:49:25 69° 256° (WSW) 20:56:37 435.675
DX 1 26 Nov 20:43:00 20:47:02 37° 70° (ENE) 20:51:04 434.975-435.025
RS-15 26 Nov 20:48:21 20:55:32 19° 357° (N) 21:02:51 29.354- 29.394
HUMSAT D 26 Nov 20:52:08 20:53:53 13° 64° (ENE) 20:55:38 437.325/437.525
GONETS M04 26 Nov 20:58:54 21:06:27 34° 276° (W) 21:13:58
STRAND 1 26 Nov 21:03:05 21:04:40 11° 301° (WNW) 21:06:14 437.568
CINEMA 3 26 Nov 21:10:53 21:15:16 76° 76° (ENE) 21:19:30 145.822/145.860
ZACube-1 26 Nov 21:12:28 21:16:17 34° 71° (ENE) 21:20:04 437.345
CUTE 1.7 & AOD 2 26 Nov 21:14:12 21:17:53 29° 264° (W) 21:21:36 437.475
VELOX 1 26 Nov 21:16:37 21:20:22 27° 68° (ENE) 21:24:08 145.980
AIST 2 26 Nov 21:16:46 21:20:49 45° 307° (NW) 21:24:58 435.215
ESTCUBE 1 26 Nov 21:20:31 21:22:07 12° 61° (ENE) 21:23:44 437.505/2401.250
GOMX 1 26 Nov 21:26:37 21:30:57 34° 262° (W) 21:35:03 467.674
UKube-1 26 Nov 21:42:30 21:46:43 48° 260° (W) 21:50:57 .
AISAT 26 Nov 21:42:41 21:47:02 52° 73° (ENE) 21:51:23 437.250
FUNcube-1 26 Nov 21:46:50 21:51:03 87° 78° (ENE) 21:55:14 145.935
SEEDS 26 Nov 21:47:43 21:50:07 15° 268° (W) 21:52:32 437.485
CUBEBUG 1 26 Nov 21:53:25 21:56:58 24° 68° (ENE) 22:00:32 437.445
Oscar 11 26 Nov 21:53:38 21:57:30 33° 263° (W) 22:01:25 145.826/435.025
TIGRISAT 26 Nov 21:58:40 22:01:24 16° 93° (E) 22:04:10 435.000
BRITE-PL 26 Nov 22:02:08 22:04:04 12° 269° (W) 22:05:58 437.365/2234.400
DELFI C3 26 Nov 22:02:29 22:06:02 29° 264° (W) 22:09:37 145.870
AAUSAT CUBESAT 2 26 Nov 22:03:19 22:05:19 13° 269° (W) 22:07:20 437.432
BEESAT 3 26 Nov 22:05:34 22:05:46 10° 322° (NW) 22:05:57 437.485
50 SAT 26 Nov 22:08:16 22:12:18 77° 76° (ENE) 22:16:19 437.505
UNISAT 6 26 Nov 22:12:08 22:15:41 23° 95° (E) 22:19:17 437.425
UWE-3 26 Nov 22:15:30 22:19:25 36° 262° (W) 22:23:17 435.000/436.395/437.385
POPSAT HIP 1 26 Nov 22:15:38 22:18:12 16° 93° (E) 22:20:44 437.405
CUBEBUG 2 26 Nov 22:17:15 22:21:01 30° 263° (W) 22:24:44 437.445
DX 1 26 Nov 22:20:15 22:23:23 19° 266° (W) 22:26:32 434.975-435.025
DOVE 4 26 Nov 22:21:22 22:23:14 12° 268° (W) 22:25:04 437.250
HUMSAT D 26 Nov 22:25:11 22:29:14 55° 260° (W) 22:33:17 437.325/437.525
CUSAT 1 26 Nov 22:35:34 22:38:29 15° 73° (ENE) 22:41:48 437.405
ANTELSAT 26 Nov 22:40:25 22:44:43 46° 99° (E) 22:49:06 437.575/2403.000
ISS 26 Nov 22:42:20 22:45:18 32° 136° (SE) 22:48:18 145.825
POLYITAN 1 26 Nov 22:48:37 22:52:34 37° 98° (E) 22:56:29 437.675
ZACube-1 26 Nov 22:49:50 22:52:45 18° 266° (W) 22:55:40 437.345
QB50P2 26 Nov 22:50:16 22:54:15 39° 98° (E) 22:58:12 145.880/145.840
VELOX 1 26 Nov 22:53:03 22:56:52 28° 264° (W) 23:00:43 145.980
ESTCUBE 1 26 Nov 22:53:50 22:58:22 73° 258° (WSW) 23:02:57 437.505/2401.250
DUCHIFAT 1 26 Nov 22:55:41 22:59:44 44° 99° (E) 23:03:45 145.980
TISAT 1 26 Nov 23:01:03 23:04:50 32° 70° (ENE) 23:08:37 437.305
RS-15 26 Nov 23:03:35 23:13:05 31° 33° (NNE) 23:22:50 29.354- 29.394
DANDE 26 Nov 23:04:22 23:08:07 23° 76° (ENE) 23:12:45 436.750
M-CUBED/EXP-1 PRIME 26 Nov 23:04:32 23:05:46 11° 54° (NE) 23:07:02 437.505
SPROUT 26 Nov 23:13:24 23:17:23 38° 71° (ENE) 23:21:23 437.525
NANOSAT C BR1 26 Nov 23:15:08 23:19:22 77° 102° (ESE) 23:23:34 145.865
AISAT 26 Nov 23:21:34 23:23:58 14° 268° (W) 23:26:22 437.250
QB50P1 26 Nov 23:25:10 23:29:24 81° 284° (WNW) 23:33:37 145.935-145.965
CUBEBUG 1 26 Nov 23:29:15 23:33:12 31° 263° (W) 23:37:09 437.445
BUGSAT 1 26 Nov 23:31:13 23:35:19 84° 284° (WNW) 23:39:21 437.445
TIGRISAT 26 Nov 23:34:07 23:38:22 46° 287° (WNW) 23:42:41 435.000
UNISAT 6 26 Nov 23:48:32 23:52:30 32° 290° (WNW) 23:56:32 437.425
POPSAT HIP 1 26 Nov 23:50:19 23:54:18 41° 288° (WNW) 23:58:16 437.405
MaSat-1 27 Nov 00:08:12 00:10:12 25° 61° (ENE) 00:12:15 437.345
ITUPSAT 1 27 Nov 00:12:35 00:16:45 30° 68° (ENE) 00:20:55 437.325
CUSAT 1 27 Nov 00:16:48 00:21:35 65° 262° (W) 00:28:01 437.405
ANTELSAT 27 Nov 00:18:17 00:21:11 17° 295° (WNW) 00:24:06 437.575/2403.000
ISS 27 Nov 00:18:59 00:21:57 30° 332° (NNW) 00:24:55 145.825
SWISSCUBE 27 Nov 00:22:46 00:27:15 41° 70° (ENE) 00:31:46 437.505
POLYITAN 1 27 Nov 00:25:20 00:28:14 18° 294° (WNW) 00:31:08 437.675
QB50P2 27 Nov 00:27:03 00:29:52 18° 294° (WNW) 00:32:41 145.880/145.840
AUBIESAT-1 27 Nov 00:30:02 00:34:06 80° 71° (ENE) 00:38:35 437.475
DUCHIFAT 1 27 Nov 00:32:43 00:35:14 16° 295° (WNW) 00:37:46 145.980
M-CUBED/EXP-1 PRIME 27 Nov 00:35:59 00:40:02 80° 253° (WSW) 00:44:30 437.505
TISAT 1 27 Nov 00:37:28 00:40:42 21° 266° (W) 00:43:58 437.305
